Wetbulb
53.95 53.97 53.88 53.96 53.68 53.76 53.80 53.87 54.01 54.16 54.46 54.79 54.92 55.35 55.92 56.19 56.02 55.03 51.58 57.19 59.31 61.10 57.45 57.26 58.74 56.60 59.41 57.40 57.27 55.77 49.12 46.41 47.44 47.95 49.44 54.58 52.82 55.20 57.00 55.60 57.40 59.91 61.10 65.19 72.62
53.48 53.48 53.48 53.38 53.33 53.30 53.40 53.38 53.49 53.60 53.97 54.12 54.23 54.35 54.25 55.14 52.72 51.07 57.59 60.08 62.64 58.93 56.28 53.44 54.21 55.87 53.88 55.25 56.30 52.67 49.07 49.59 52.53 52.30 51.30 53.60 53.30 52.47 52.44 52.37 53.11 55.24 59.32 64.39 69.07
52.91 53.04 53.04 53.06 52.95 52.84 52.92 53.15 53.30 53.39 53.52 53.66 53.50 53.54 53.57 54.16 49.50 52.04 60.73 60.69 60.93 59.69 55.24 54.71 55.20 55.08 52.26 53.40 54.25 53.56 49.11 53.24 53.76 55.15 54.56 52.85 52.23 53.38 51.79 50.75 53.02 53.37 56.93 59.81 64.25
52.49 52.64 52.60 52.43 52.38 52.44 52.46 52.76 52.92 53.24 53.24 53.34 53.26 52.93 52.91 52.36 43.04 59.23 60.29 59.91 59.10 57.97 56.59 53.96 53.51 51.74 51.11 50.26 53.49 50.68 52.62 52.76 53.45 55.20 53.97 52.54 53.76 52.05 52.17 52.46 55.42 55.88 56.82 57.58 62.05
51.76 51.93 51.89 51.67 51.91 51.97 52.20 52.39 52.49 52.79 52.83 52.70 52.96 53.21 51.96 47.17 47.39 55.54 59.41 59.83 59.73 58.55 56.00 54.15 52.00 51.85 49.77 51.82 52.40 51.01 52.24 53.16 53.51 53.38 54.16 54.11 52.05 52.54 52.95 54.47 55.68 55.56 56.59 56.93 57.82
51.66 51.38 51.41 51.71 51.64 52.17 52.84 52.84 52.71 52.71 52.63 53.04 53.04 53.37 49.53 41.63 53.27 54.62 59.25 58.00 58.83 57.63 57.23 56.04 53.74 54.78 52.09 52.04 50.89 52.62 52.48 52.76 53.17 53.02 53.24 51.85 51.79 52.46 53.82 55.77 54.72 54.84 54.69 55.92 56.82
51.34 51.02 51.04 51.28 51.40 51.80 52.57 52.69 52.66 52.97 52.96 53.45 53.64 51.50 46.44 46.32 54.01 54.22 54.08 53.17 54.20 56.33 54.77 57.55 57.11 52.73 53.16 50.82 53.92 51.99 49.29 51.19 51.58 52.15 51.33 52.45 49.40 50.04 53.95 55.03 54.07 54.21 54.77 55.08 56.19
51.40 51.49 50.93 51.02 51.29 51.92 52.90 52.87 52.81 52.93 53.67 54.20 53.73 50.51 42.01 53.51 55.51 53.27 53.37 52.70 55.19 56.58 55.58 58.00 58.50 55.08 52.26 52.93 50.78 48.89 48.94 45.27 50.24 51.17 51.21 50.82 45.73 51.32 53.91 54.04 53.22 53.99 54.73 54.97 55.54
51.22 51.43 50.82 50.97 51.24 51.75 52.58 52.37 53.16 53.83 53.84 53.84 52.04 48.55 44.33 55.45 51.04 53.52 53.23 50.31 51.70 52.83 54.19 56.86 55.89 52.51 52.69 48.38 46.32 47.78 43.66 45.17 47.40 51.90 50.48 49.64 46.94 51.34 53.67 53.60 53.12 54.01 55.01 54.85 55.23
51.20 51.24 51.52 51.37 51.58 52.02 52.13 51.92 53.85 55.04 54.02 54.81 53.12 44.08 48.85 46.90 51.26 52.93 56.12 53.95 51.03 51.36 48.63 48.63 50.88 48.49 48.76 47.00 40.85 43.41 44.47 46.41 46.98 50.04 50.34 48.66 48.25 51.69 53.12 52.72 53.24 53.79 54.75 55.41 54.99
50.59 51.26 51.33 51.73 52.00 51.71 51.78 54.09 48.63 48.28 51.35 45.58 44.76 45.61 47.04 50.34 52.43 50.05 53.94 52.74 51.58 49.38 44.26 46.22 42.21 41.51 45.39 47.74 48.29 47.81 47.36 46.68 48.68 51.93 50.14 48.75 49.05 50.30 52.57 52.71 52.66 54.01 54.65 55.63 56.17
50.25 50.97 51.35 51.59 51.80 51.53 52.42 49.46 47.79 49.01 41.20 47.08 47.54 47.98 49.96 50.75 45.58 46.41 50.47 45.37 45.72 42.66 45.73 43.86 39.23 44.76 47.54 47.88 47.19 47.01 45.67 46.72 49.68 51.05 50.44 49.67 48.28 51.10 52.15 52.64 53.11 53.64 54.60 55.43 56.25
50.76 50.71 51.27 51.28 51.55 52.53 50.95 50.10 53.14 51.70 40.44 44.49 47.85 47.21 47.25 49.64 44.18 43.66 47.35 45.79 44.87 41.92 42.54 40.62 43.40 46.33 45.03 44.71 45.10 45.39 45.36 46.08 46.59 49.28 50.34 48.92 46.67 49.65 52.00 53.35 53.46 54.16 55.43 56.12 56.15
50.39 50.48 50.73 50.86 49.70 52.17 49.58 52.85 54.12 52.50 36.09 40.58 43.66 44.93 49.20 48.01 40.91 48.32 50.73 45.50 43.72 41.40 43.07 42.25 46.34 44.30 44.03 43.01 44.63 42.27 47.68 47.30 47.15 46.46 42.70 48.46 40.29 47.51 50.57 51.20 52.58 53.31 54.39 55.22 56.19
50.33 50.66 50.50 49.93 51.07 49.48 50.15 53.41 53.87 50.27 25.26 41.78 43.72 51.11 48.17 44.77 46.07 44.69 51.44 46.20 40.76 41.91 43.10 41.13 43.41 42.44 41.98 43.55 45.52 42.97 47.86 46.73 46.72 46.00 45.19 45.70 42.50 46.59 50.45 49.13 51.25 53.54 54.16 55.33 56.53
50.18 50.43 50.48 52.34 52.40 51.43 52.72 53.74 49.79 34.38 24.81 37.99 43.51 42.36 42.57 44.10 45.18 47.11 46.75 48.81 48.23 41.84 41.79 41.17 47.41 45.91 44.19 46.06 46.70 47.65 46.12 46.36 46.39 45.37 38.74 44.19 43.27 44.67 48.43 50.14 52.08 53.65 54.16 55.22 55.85
49.73 49.81 49.86 52.71 48.33 53.01 53.58 49.71 35.97 27.94 40.51 36.50 38.05 40.90 39.50 38.80 39.36 42.88 41.99 40.32 40.44 36.22 34.26 41.50 42.70 45.12 47.82 42.56 45.95 45.68 43.48 36.19 34.53 36.11 35.67 45.13 43.64 45.58 51.16 52.74 53.54 53.68 54.21 55.46 56.47
48.77 48.59 53.59 52.25 53.52 53.29 51.92 42.44 29.67 35.38 35.63 40.61 39.82 40.62 36.66 37.63 39.41 40.24 40.86 38.84 43.86 42.50 38.97 33.84 33.70 43.41 46.76 45.09 42.31 43.19 43.89 38.13 31.73 33.74 37.58 44.81 40.85 45.69 52.38 54.30 54.74 55.60 55.68 55.91 56.42
48.09 54.37 52.71 51.84 53.95 53.97 45.91 34.86 32.13 34.76 37.10 36.36 39.01 35.55 35.55 38.21 38.47 38.67 40.03 40.64 42.53 44.04 37.14 35.80 36.28 44.62 46.81 47.66 45.96 43.17 40.57 47.11 41.45 42.69 39.45 41.86 46.37 49.71 51.75 52.97 54.68 55.69 55.46 55.24 56.28
49.39 51.09 51.05 53.31 54.86 51.31 42.09 31.34 36.07 39.35 39.73 39.36 33.59 36.18 32.97 35.56 36.61 37.74 35.98 39.82 40.49 41.16 43.05 41.98 36.35 42.79 45.84 47.46 46.75 43.85 47.50 38.98 41.57 34.64 33.72 40.33 42.88 44.05 48.91 50.78 53.52 54.93 58.24 60.17 59.43
50.86 47.08 50.85 54.14 53.30 46.12 37.47 36.06 37.49 41.62 41.22 38.05 36.16 34.65 35.83 34.28 36.28 35.48 36.59 39.00 41.01 39.43 41.35 39.34 39.27 37.49 44.41 42.29 41.80 42.97 41.07 42.99 44.16 42.52 37.75 37.13 41.12 50.67 51.29 52.65 54.64 57.94 56.34 56.37 57.89
49.24 43.25 51.63 53.30 43.05 42.43 38.20 38.45 40.19 40.44 43.09 40.46 40.77 38.47 36.85 36.77 35.37 34.85 35.19 37.34 41.97 39.68 34.74 37.88 38.17 34.61 39.24 46.57 47.89 46.13 43.40 44.00 38.77 39.64 41.96 42.68 44.01 56.05 53.54 55.58 55.58 52.36 53.29 55.36 57.53
45.58 46.62 52.46 51.55 36.51 36.25 40.24 38.91 40.80 40.27 40.38 39.60 37.48 39.58 40.01 37.09 32.20 36.96 36.95 41.70 42.14 39.99 34.86 38.22 36.90 34.68 34.66 40.57 47.00 42.00 46.16 46.36 45.14 46.45 42.23 40.26 42.49 53.57 54.54 51.87 50.85 50.30 51.61 54.16 55.69
45.33 41.04 45.23 46.90 45.13 37.12 36.71 38.03 37.82 42.46 40.50 41.11 39.36 40.80 38.61 36.03 37.13 34.51 35.13 40.09 41.96 40.36 42.89 40.91 35.30 38.25 36.38 38.69 44.18 39.31 43.41 45.76 45.15 41.69 41.91 43.52 45.09 48.62 48.76 48.07 48.85 49.85 50.84 52.34 53.88
45.49 41.28 41.36 37.01 38.74 38.80 41.75 39.12 37.33 34.94 40.86 42.24 39.85 38.56 35.56 31.83 33.21 35.33 38.13 37.49 39.66 42.96 41.28 36.50 33.65 38.81 42.41 43.38 43.07 43.73 44.08 43.90 42.90 43.20 41.12 45.28 45.26 48.50 48.41 47.91 48.38 49.63 50.27 50.98 51.60
41.31 36.77 39.55 37.93 41.97 40.49 41.24 38.81 37.61 39.37 38.51 38.08 36.67 36.93 36.47 34.19 35.13 32.28 34.60 34.86 34.15 41.38 37.92 38.01 31.84 37.09 39.21 44.66 43.40 42.23 44.79 45.79 45.22 44.71 45.33 44.65 45.66 50.29 49.84 49.47 48.94 49.46 50.01 50.02 50.78
45.85 45.73 39.25 37.22 41.80 40.82 40.07 36.74 38.37 40.22 41.08 41.56 39.24 37.46 36.87 38.41 40.15 41.28 41.27 39.81 37.75 35.85 34.91 35.97 35.31 36.94 36.65 42.18 40.64 39.20 44.13 45.26 44.47 46.83 47.00 42.30 45.82 47.92 47.30 48.24 49.12 49.69 50.50 50.35 51.46
MSLP
1020.58 1020.12 1019.70 1019.31 1018.93 1018.53 1018.14 1017.74 1017.32 1016.90 1016.42 1015.95 1015.47 1014.96 1014.47 1013.96 1013.08 1011.33 1008.66 1007.28 1007.15 1007.80 1008.71 1007.46 1006.47 1006.51 1006.11 1004.54 1003.61 1002.96 1001.09 998.39 997.19 996.45 995.77 995.45 995.34 996.14 996.50 996.85 996.97 996.87 997.05 997.86 998.88
1020.51 1019.96 1019.50 1019.09 1018.72 1018.38 1017.94 1017.47 1017.06 1016.60 1016.15 1015.73 1015.37 1015.00 1014.58 1014.04 1012.49 1009.19 1006.48 1006.42 1006.69 1007.59 1007.81 1007.00 1005.39 1005.29 1004.83 1003.78 1002.76 1001.68 1000.00 997.82 997.27 996.42 995.57 995.15 995.48 996.71 997.09 997.17 997.27 997.29 997.44 998.11 999.15
1020.46 1019.94 1019.35 1018.86 1018.46 1018.00 1017.54 1017.07 1016.59 1016.15 1015.75 1015.42 1015.12 1014.89 1014.57 1014.07 1011.19 1005.40 1005.56 1005.44 1005.87 1006.88 1006.83 1006.24 1004.94 1004.13 1003.52 1002.89 1001.78 1000.80 998.54 998.05 997.32 996.60 996.03 995.55 995.88 996.79 996.71 996.78 997.11 997.28 997.17 997.75 998.74
1020.45 1019.89 1019.29 1018.68 1018.09 1017.62 1017.19 1016.68 1016.14 1015.65 1015.25 1015.04 1014.77 1014.56 1014.36 1013.44 1008.46 1005.12 1005.86 1005.97 1006.57 1006.71 1006.58 1005.54 1004.29 1002.90 1002.09 1001.03 1000.80 999.84 999.29 998.92 997.59 996.65 996.85 996.41 996.69 996.34 996.76 997.02 996.89 997.12 997.38 997.63 998.50
1020.16 1019.53 1018.98 1018.36 1017.73 1017.13 1016.54 1016.00 1015.59 1015.10 1014.58 1014.30 1014.32 1014.23 1013.91 1011.03 1006.37 1005.03 1006.18 1006.48 1006.46 1006.36 1005.23 1004.11 1002.94 1001.98 1000.61 1000.53 999.94 998.74 998.69 998.43 998.10 997.62 996.78 997.14 997.36 997.07 996.81 997.21 997.36 997.40 997.60 997.75 998.60
1020.02 1019.43 1018.82 1018.15 1017.40 1016.56 1015.75 1015.06 1014.33 1013.95 1013.69 1013.50 1013.44 1013.70 1012.93 1008.95 1005.17 1004.33 1004.75 1005.20 1004.86 1004.65 1004.07 1003.04 1002.04 1001.25 1000.10 999.67 998.67 998.61 998.45 997.96 998.01 997.40 997.39 997.29 997.25 997.45 996.98 997.26 997.51 997.81 998.05 998.46 998.64
1019.72 1019.06 1018.38 1017.66 1016.94 1016.07 1015.24 1014.40 1013.62 1012.82 1012.38 1012.28 1012.44 1012.51 1011.20 1006.45 1004.73 1003.94 1003.94 1004.28 1004.13 1003.75 1002.94 1002.59 1001.93 1001.06 1000.54 999.22 998.93 998.52 997.81 997.52 997.09 997.53 997.44 997.94 996.96 996.09 996.96 997.39 997.60 998.02 998.28 998.46 998.45
1019.64 1018.94 1018.14 1017.34 1016.37 1015.40 1014.41 1013.39 1012.49 1012.09 1011.45 1011.16 1011.10 1011.45 1008.83 1005.54 1004.97 1004.85 1004.41 1004.24 1003.48 1003.20 1003.05 1002.45 1001.98 1001.10 1000.01 999.59 998.87 998.29 998.04 996.42 996.41 996.97 997.24 997.76 994.75 995.85 996.75 996.99 997.43 997.80 998.02 998.13 998.06
1019.50 1018.59 1017.72 1016.81 1015.86 1015.00 1013.82 1012.16 1011.05 1010.81 1010.53 1010.49 1010.29 1010.13 1005.94 1003.98 1004.15 1003.67 1003.68 1003.20 1003.69 1003.55 1003.59 1003.54 1002.57 1001.50 1001.08 999.80 998.57 997.44 995.56 995.38 995.81 995.74 996.49 996.30 995.04 995.71 995.62 995.76 996.67 997.19 997.20 997.10 997.29
1019.36 1018.54 1017.54 1016.61 1015.32 1014.27 1013.16 1011.22 1009.12 1009.73 1009.64 1008.95 1008.52 1009.47 1005.08 1002.72 1001.72 1002.43 1002.36 1003.01 1002.68 1002.69 1003.12 1003.34 1002.50 1001.30 1000.30 998.93 995.01 994.32 995.07 994.96 994.10 994.68 994.92 995.20 995.07 994.93 994.98 995.47 995.75 996.30 996.57 996.60 996.62
1019.09 1018.17 1017.06 1016.01 1014.87 1013.80 1012.73 1009.06 1008.07 1007.58 1007.08 1006.51 1006.25 1005.06 1002.96 1002.73 1001.19 1001.99 1001.77 1002.28 1002.46 1002.14 1001.46 1001.90 1001.83 998.86 997.09 997.08 996.30 995.77 994.56 993.92 993.76 993.26 993.74 994.07 994.67 994.81 994.88 994.90 995.16 995.30 995.65 995.89 995.92
1018.64 1017.67 1016.67 1015.43 1014.10 1013.21 1012.19 1009.58 1009.86 1010.17 1007.72 1005.38 1003.92 1002.95 1002.60 1002.26 1001.66 1001.92 1001.56 1002.16 1001.80 1001.16 1000.92 1000.47 999.51 998.11 997.68 997.16 996.95 996.01 994.63 993.22 992.73 993.04 993.31 993.54 994.52 994.50 994.17 993.98 994.57 994.79 994.79 995.06 995.34
1018.17 1017.02 1016.05 1014.78 1013.62 1012.08 1010.14 1009.68 1009.79 1010.00 1009.24 1003.71 1002.00 1002.24 1002.30 1002.64 1002.53 1001.52 1001.63 1001.57 1001.28 1000.84 999.60 998.71 997.30 997.87 997.37 996.56 995.76 995.62 994.56 993.90 993.11 993.14 993.54 993.92 994.04 993.43 993.24 993.27 993.90 993.99 994.34 994.55 994.78
1017.78 1016.61 1015.45 1014.44 1012.93 1010.74 1009.16 1009.75 1009.43 1010.40 1008.55 1002.99 1002.06 1004.39 1002.36 1003.21 1003.24 1002.37 1002.17 1001.50 1001.43 999.85 999.07 999.28 997.13 995.98 996.14 995.64 995.57 994.50 994.85 994.99 994.13 993.49 993.02 993.98 992.76 992.55 992.48 992.38 992.64 993.31 993.68 994.06 994.46
1017.42 1016.16 1015.20 1014.18 1012.98 1010.19 1009.73 1009.25 1009.54 1010.53 1007.15 1003.05 1001.48 1001.80 1001.43 1001.72 1000.80 1001.58 1002.08 1001.58 1000.48 1000.04 999.36 997.62 997.00 995.76 995.17 994.78 995.17 994.37 995.15 995.43 994.99 993.86 993.69 992.83 993.26 990.77 990.66 991.01 991.02 991.91 992.99 993.45 993.93
1017.01 1015.65 1014.95 1012.34 1011.20 1009.93 1009.46 1009.18 1009.86 1009.96 1005.80 1002.90 1002.45 1001.79 1001.73 1001.68 1001.34 1000.67 1001.17 1000.78 999.80 1000.76 1000.45 999.05 997.16 996.36 994.87 994.43 994.46 995.30 995.29 995.14 995.15 994.06 993.34 992.13 991.76 989.91 988.80 989.20 990.12 991.08 992.24 992.91 993.52
1016.49 1015.34 1014.54 1012.56 1010.56 1009.70 1009.28 1008.62 1009.27 1007.72 1005.42 1004.63 1003.82 1003.18 1003.11 1003.15 1002.73 1001.67 1000.98 1000.90 999.88 1000.11 999.74 999.30 998.15 997.35 996.08 994.55 994.21 994.50 994.56 994.81 994.36 993.33 993.05 992.11 990.65 989.51 988.18 988.33 989.15 990.08 991.47 992.40 993.13
1016.20 1014.60 1012.26 1010.93 1010.49 1009.88 1009.02 1009.08 1007.95 1007.90 1007.36 1006.79 1005.42 1003.73 1004.03 1004.18 1002.64 1001.57 1000.30 999.68 999.89 998.98 998.30 998.17 996.53 995.15 995.24 993.77 993.01 993.38 993.96 992.91 992.10 991.93 991.34 991.23 989.43 988.46 988.82 988.10 989.22 989.87 991.13 992.17 992.94
1015.56 1012.20 1010.91 1010.88 1010.37 1009.54 1008.06 1008.17 1009.42 1009.28 1008.86 1007.59 1005.94 1004.54 1004.06 1003.74 1003.31 1002.29 1000.76 999.89 999.71 999.15 999.43 997.97 996.19 995.13 994.31 993.80 993.13 992.84 993.66 993.38 992.06 992.20 991.40 990.68 989.05 989.69 989.48 990.73 991.33 991.79 991.34 992.41 993.18
1015.26 1011.72 1010.71 1011.04 1010.08 1009.16 1009.18 1010.13 1010.07 1009.83 1009.10 1008.23 1007.04 1006.26 1005.55 1004.57 1003.46 1002.68 1001.98 1002.18 1001.25 1001.42 1000.87 999.04 997.18 995.88 993.82 994.02 993.42 992.54 993.28 993.26 991.94 990.41 989.72 988.86 988.44 988.08 989.27 991.14 992.69 993.58 994.30 994.91 994.54
1013.97 1011.02 1011.12 1010.69 1009.36 1008.57 1009.41 1010.27 1010.23 1009.82 1009.27 1008.47 1007.71 1007.41 1006.89 1005.93 1004.92 1003.60 1003.07 1003.39 1002.90 1002.06 1002.26 1001.79 999.85 997.04 995.17 993.45 992.34 992.31 992.33 992.65 992.04 990.82 989.22 988.02 988.26 988.70 990.16 991.99 994.03 996.17 998.33 999.21 999.31
1013.57 1010.99 1011.47 1010.48 1009.25 1010.03 1010.14 1010.87 1010.43 1009.53 1008.57 1008.09 1008.01 1007.56 1007.29 1006.65 1005.47 1004.34 1003.80 1004.09 1004.14 1004.28 1003.85 1002.82 1000.96 998.38 996.14 993.55 993.46 992.56 993.55 992.15 991.60 990.63 990.43 988.78 990.77 990.67 990.68 993.38 997.09 999.48 1000.46 1001.27 1001.36
1013.99 1011.57 1011.00 1010.75 1011.41 1011.71 1011.43 1010.85 1010.14 1009.44 1008.86 1008.33 1008.23 1007.73 1007.61 1007.30 1006.57 1004.61 1003.98 1003.70 1003.99 1004.31 1004.54 1003.45 1001.17 998.71 996.89 994.87 993.18 992.99 992.26 991.77 992.67 990.78 990.45 989.91 993.82 995.34 995.59 997.92 1000.03 1001.38 1002.60 1002.93 1003.05
1014.52 1012.44 1012.15 1011.80 1012.49 1013.22 1011.70 1010.75 1009.91 1009.81 1009.21 1008.88 1008.37 1007.67 1007.78 1007.63 1006.88 1005.52 1004.76 1004.16 1004.04 1004.17 1004.24 1003.36 1001.61 998.37 994.61 993.41 992.82 993.31 991.54 991.06 991.54 991.40 991.85 991.69 995.72 997.23 998.64 999.73 1001.97 1003.36 1003.90 1004.11 1004.32
1016.12 1015.25 1015.90 1014.09 1013.54 1013.26 1011.23 1010.79 1010.18 1009.83 1009.62 1008.71 1008.14 1007.96 1008.25 1007.62 1006.81 1005.04 1004.94 1004.37 1004.05 1002.98 1003.41 1003.66 1001.34 998.77 995.56 994.18 992.83 992.39 991.68 990.84 991.56 992.53 992.99 993.77 996.20 998.60 1000.04 1001.34 1003.46 1004.15 1004.59 1004.87 1005.12
1018.23 1018.81 1017.80 1016.37 1014.01 1012.37 1011.12 1011.24 1010.61 1009.62 1009.87 1009.06 1009.27 1008.70 1008.26 1007.46 1007.11 1005.73 1005.59 1005.19 1004.55 1002.90 1003.25 1002.85 1001.01 998.75 996.40 993.45 992.79 992.21 991.23 990.93 991.38 993.88 993.76 996.02 997.56 1000.12 1001.38 1003.02 1004.19 1004.73 1004.99 1005.50 1005.94
1019.53 1019.54 1019.33 1016.80 1013.69 1012.51 1011.93 1012.35 1011.11 1010.47 1009.84 1009.59 1009.11 1008.35 1007.24 1006.38 1006.01 1005.05 1004.59 1004.42 1004.53 1004.16 1003.44 1002.54 1000.61 998.03 996.05 994.38 993.71 992.62 990.82 990.90 992.09 993.73 994.12 996.92 998.54 1001.03 1002.78 1003.99 1004.74 1005.25 1005.52 1005.97 1006.37
Wind_Speed
17 17 17 17 17 18 18 18 18 18 19 19 20 21 21 21 24 26 30 20 12 21 7 14 13 19 20 21 23 19 19 22 29 26 21 21 16 14 14 17 21 19 15 4 12
18 18 19 19 19 19 20 20 19 19 18 18 18 18 19 20 25 32 27 7 12 8 20 19 20 20 20 20 21 23 18 31 23 22 19 20 18 13 16 18 17 13 18 11 10
19 20 20 20 21 20 20 21 21 21 20 19 18 17 17 18 24 7 12 7 21 18 19 21 21 22 26 20 27 26 29 21 24 23 20 18 16 17 16 16 18 19 17 12 12
20 21 21 21 22 22 22 22 22 22 22 21 19 17 15 16 11 11 11 9 12 14 19 21 25 27 27 30 27 32 29 28 29 19 16 19 14 19 18 18 15 15 18 18 13
22 22 22 23 24 24 24 24 24 23 23 21 19 16 14 16 27 21 12 11 13 15 22 24 27 27 30 26 28 33 29 25 22 27 22 17 20 21 21 18 19 8 14 8 12
23 24 24 25 25 25 25 26 26 25 24 21 17 14 14 29 17 19 19 17 15 17 19 21 16 25 23 31 30 27 26 27 27 21 23 22 21 20 20 15 18 17 15 15 17
23 24 25 25 25 26 25 26 27 27 28 23 20 13 20 32 16 19 11 17 19 22 22 22 23 16 24 22 27 28 25 25 28 28 22 19 27 30 20 17 18 17 15 18 22
24 23 26 27 27 27 27 28 27 27 27 19 11 12 15 18 19 29 27 23 13 13 21 21 20 25 22 18 23 19 29 26 26 23 27 21 28 26 24 22 21 19 21 22 20
24 24 27 28 29 29 29 31 32 23 13 6 10 11 13 10 15 21 22 23 24 19 12 11 16 20 23 23 20 25 25 32 25 27 22 29 24 25 15 25 26 21 20 19 21
25 25 27 28 29 28 28 35 25 11 13 9 4 8 16 14 6 2 8 16 16 16 25 21 12 19 22 23 30 33 30 23 25 26 27 27 28 23 19 17 22 25 25 22 21
28 27 28 28 29 28 21 18 15 8 9 21 26 23 27 27 35 17 12 9 17 14 21 26 19 25 35 35 29 26 26 26 25 21 28 24 23 25 21 15 19 20 22 23 23
29 29 29 30 29 27 15 12 13 11 19 26 26 26 21 16 21 19 10 10 18 23 22 22 28 32 28 29 30 29 29 25 20 24 15 19 21 24 25 22 20 21 19 21 21
28 29 29 32 28 16 13 9 9 9 9 20 6 2 3 8 11 10 15 16 23 21 23 28 25 28 28 28 28 31 28 27 17 13 15 16 21 24 24 23 21 19 20 19 19
29 30 31 28 14 13 11 14 10 7 8 9 7 6 4 9 4 7 16 22 17 23 25 21 25 25 29 29 30 28 29 25 24 15 18 19 16 21 21 25 24 24 19 20 21
30 31 29 17 13 10 15 13 9 3 6 15 11 6 15 18 25 10 20 17 20 20 18 22 26 25 20 26 28 29 22 25 26 21 17 24 17 20 29 28 28 26 25 22 20
32 32 26 7 11 16 16 13 4 6 5 8 24 23 27 24 19 9 21 17 20 17 14 21 21 14 21 23 22 24 23 24 26 17 17 19 18 17 18 24 24 25 25 24 22
34 32 21 10 13 17 13 8 7 9 23 20 31 27 20 12 12 12 11 10 17 8 11 27 24 18 21 24 23 24 21 10 15 18 14 25 22 17 22 19 22 21 24 23 21
36 32 8 9 14 14 12 11 10 22 20 25 23 24 10 13 14 16 10 9 17 22 16 3 9 24 19 25 26 28 24 15 18 24 25 26 27 21 15 10 7 13 22 23 22
34 4 6 12 12 11 12 6 10 16 19 21 24 14 16 15 13 12 14 12 8 15 12 6 9 5 22 22 26 28 25 26 17 22 19 22 22 24 14 8 5 3 9 22 22
12 8 7 17 12 10 9 6 10 14 17 19 11 11 20 20 18 22 12 18 9 15 16 8 11 9 15 25 29 23 25 24 16 18 19 23 21 14 21 17 12 15 10 12 6
8 7 11 18 12 9 8 8 11 16 19 10 16 9 14 16 21 22 7 4 16 16 17 7 8 4 14 20 23 18 20 23 20 16 16 17 21 15 21 19 15 18 13 12 13
8 7 9 13 8 8 10 13 12 17 18 9 11 10 11 18 14 13 8 6 11 7 10 4 5 8 18 18 20 16 21 29 14 23 15 12 8 15 22 20 22 15 14 13 14
9 8 6 11 7 10 13 12 11 21 19 8 13 10 18 13 12 12 10 8 16 13 4 5 5 5 3 2 17 29 28 28 22 20 14 13 8 11 23 22 18 16 13 13 14
7 7 6 8 9 13 15 14 17 15 16 14 20 17 15 20 11 14 21 9 19 12 13 4 5 12 6 15 15 9 19 27 25 8 14 3 15 14 16 20 16 15 14 15 15
7 6 5 8 10 16 14 14 22 18 8 15 9 18 24 8 15 4 17 17 14 14 1 1 7 11 20 10 18 15 20 23 20 14 5 19 17 17 18 20 16 16 16 18 17
7 5 6 14 14 16 10 15 19 25 17 11 10 22 22 11 12 21 15 8 7 8 9 4 5 10 16 17 21 21 21 25 23 21 5 14 22 19 19 18 17 16 19 19 19
6 3 3 12 12 13 12 18 24 21 10 14 18 18 17 14 18 22 20 17 13 9 5 5 6 6 12 16 13 18 22 22 12 17 10 10 16 23 21 18 15 17 18 19 19
Wind_Direction
350 346 342 338 334 329 325 321 317 314 312 310 311 313 314 313 303 281 263 247 231 231 207 276 201 208 231 233 228 224 243 238 238 240 245 251 246 227 246 251 246 245 233 93 116
347 343 338 334 331 328 324 319 316 311 307 304 304 305 309 313 298 282 264 242 189 137 212 230 220 202 215 224 225 224 230 237 240 242 246 243 238 213 234 226 238 218 235 133 162
344 339 335 332 328 324 320 316 312 309 305 303 303 304 303 303 290 247 23 299 182 185 235 227 240 217 220 220 220 220 237 236 241 253 260 267 228 200 205 223 212 223 212 175 202
342 338 334 329 325 321 317 311 307 305 303 301 299 299 301 284 273 62 66 68 155 212 218 224 224 227 225 222 223 228 232 244 268 254 233 261 259 241 224 245 243 212 217 223 185
341 336 333 329 325 320 315 310 305 301 296 295 292 291 282 244 247 259 131 144 176 206 212 211 215 220 224 233 224 230 235 240 246 256 261 227 241 246 244 225 253 239 225 200 211
339 335 332 327 323 318 314 310 304 298 294 290 281 269 249 259 273 276 195 222 236 211 222 220 222 224 237 230 230 233 237 242 245 251 237 248 242 239 238 234 226 235 215 222 230
334 331 327 324 319 315 309 304 299 299 296 289 274 248 247 244 269 264 222 253 251 239 232 227 233 218 227 241 237 254 247 238 234 237 234 250 246 237 233 217 218 216 223 226 223
333 329 327 323 320 317 311 304 295 293 291 291 258 223 254 253 247 247 267 273 242 238 248 244 235 253 244 232 247 236 239 239 225 225 237 223 247 227 228 223 208 224 224 222 231
333 329 324 322 320 318 313 303 296 289 280 243 195 208 258 178 226 240 254 237 242 245 242 276 261 245 237 238 236 227 232 226 239 219 216 220 240 253 199 215 218 213 225 209 210
333 328 324 321 318 316 309 295 275 268 231 191 284 206 233 279 297 254 215 224 231 231 224 218 229 223 226 214 220 214 222 241 232 227 200 225 231 254 206 201 208 217 221 221 218
333 329 324 322 317 313 312 297 357 224 233 289 288 246 272 287 301 270 235 211 221 234 215 208 222 217 217 221 231 241 228 231 226 229 224 210 238 219 241 195 219 211 216 223 222
331 328 326 322 316 311 292 336 8 331 298 294 263 251 262 273 265 263 247 215 210 235 208 211 219 229 230 225 231 240 244 247 233 217 226 205 232 243 217 221 212 215 214 208 213
330 328 328 323 317 290 309 15 343 349 285 298 244 260 264 59 319 266 247 215 227 228 225 225 214 228 233 234 226 224 229 233 238 192 211 230 237 227 233 215 207 215 209 217 203
330 328 328 327 284 330 346 347 328 35 277 282 116 341 74 333 239 197 318 233 249 252 218 230 257 229 211 228 222 230 218 240 239 228 212 202 237 222 221 221 218 209 209 201 209
329 327 326 324 302 309 337 324 355 321 270 314 8 117 314 296 311 179 220 231 225 240 257 222 225 241 214 210 222 229 229 215 236 232 231 200 219 249 198 215 209 209 210 210 197
328 327 327 322 281 339 318 319 62 240 335 6 355 340 342 352 340 350 206 225 219 212 235 280 286 305 263 243 204 219 221 216 226 213 225 235 198 223 193 212 213 198 206 204 203
329 322 315 291 329 324 320 297 276 0 355 355 335 335 327 344 301 326 303 227 241 211 191 231 210 231 244 230 217 210 199 192 208 214 222 215 228 234 210 184 206 194 193 201 197
327 312 256 305 328 326 298 301 335 4 358 331 330 315 12 0 320 331 293 257 223 255 270 223 224 219 201 229 205 196 201 202 188 194 210 223 215 205 243 147 166 181 183 195 193
317 320 286 357 331 295 295 21 6 349 335 331 320 343 352 349 328 332 319 297 225 236 244 292 237 176 235 204 230 185 207 211 216 199 218 207 214 217 167 137 143 241 181 184 186
314 293 11 342 317 289 18 348 343 342 326 327 325 339 333 338 336 339 3 359 14 20 0 309 291 215 193 195 219 208 196 215 236 212 203 198 197 183 182 161 172 183 96 51 132
277 293 32 325 284 325 26 354 333 326 330 320 311 308 313 331 326 331 334 50 10 355 353 300 273 301 243 208 203 187 198 213 225 230 209 203 190 173 180 164 162 107 88 79 85
301 340 33 314 21 353 8 338 309 330 330 323 302 304 300 323 317 320 320 330 354 359 312 240 299 229 233 198 198 209 207 208 215 218 258 209 95 345 170 128 104 102 94 93 94
331 306 70 325 18 357 337 319 342 335 335 319 313 306 316 318 320 310 323 312 314 358 313 330 251 174 249 281 215 200 186 216 210 235 230 208 123 64 92 101 98 99 104 105 105
321 342 351 306 2 339 335 325 335 349 324 326 303 301 326 330 313 290 298 303 327 297 282 313 267 272 242 172 194 154 217 201 205 223 235 106 142 120 111 99 105 116 111 106 108
17 18 26 315 334 310 329 319 338 338 309 316 303 341 328 301 306 268 318 321 303 277 179 216 270 258 250 263 183 189 187 218 168 222 280 133 146 137 124 114 125 119 119 114 112
352 350 335 292 293 290 345 346 330 332 336 317 317 316 311 290 282 294 303 306 282 305 349 209 257 250 246 221 171 198 201 203 193 209 211 212 133 124 110 113 124 122 117 113 115
23 321 271 292 324 324 354 326 322 336 312 334 311 311 306 310 298 280 274 263 248 274 310 282 317 355 132 129 141 195 196 216 112 239 299 160 112 123 118 122 121 124 118 116 115